Location: Seasalter
(51.3333°N, 1.0167°E)
Time: 00:45:27
(UTC+00:00)

CZ-4C R/B - Visible Passes

Search period start: 18 April 2024 00:00
Search period end: 28 April 2024 00:00
Orbit: 533 x 1461 km, 63.4° (Epoch: 17 April)

Date Brightness Start Highest point End Pass type
(mag) Time Alt. Az. Time Alt. Az. Time Alt. Az.
18 Apr 3.1 20:29:43 10° NW 20:36:27 67° NE 20:42:37 19° ESE visible
18 Apr 3.6 22:18:12 10° NW 22:24:59 45° WSW 22:27:43 34° SSW visible
19 Apr 5.0 00:10:27 10° W 00:12:16 11° WSW 00:12:50 11° WSW visible
19 Apr 3.0 21:01:55 10° NW 21:08:54 82° SW 21:14:05 26° SE visible
19 Apr 4.3 22:51:00 10° WNW 22:56:57 26° WSW 22:59:11 23° SW visible
20 Apr 3.2 19:45:51 10° NW 19:52:28 60° NE 20:00:29 11° ESE visible
20 Apr 3.4 21:34:14 10° NW 21:41:08 52° WSW 21:45:36 27° S visible
20 Apr 4.9 23:24:58 10° WNW 23:28:38 14° WSW 23:30:42 13° WSW visible
21 Apr 3.0 20:18:02 10° NW 20:24:57 88° NE 20:32:02 16° SE visible
21 Apr 4.2 22:06:52 10° WNW 22:13:10 31° WSW 22:17:09 21° SSW visible
22 Apr 3.3 20:50:17 10° NW 20:57:15 61° SW 21:03:39 18° SSE visible
22 Apr 4.8 22:40:16 10° WNW 22:44:55 17° WSW 22:48:46 13° SW visible
23 Apr 3.0 19:34:07 10° NW 19:40:59 78° NE 19:49:26 10° SE visible
23 Apr 4.0 21:22:47 10° NW 21:29:20 37° WSW 21:35:18 16° S visible
24 Apr 3.2 20:06:20 10° NW 20:13:19 70° SW 20:21:49 10° SSE visible
24 Apr 4.7 21:55:49 10° WNW 22:01:10 21° WSW 22:07:02 10° SSW visible
25 Apr 3.9 20:38:43 10° NW 20:45:27 43° WSW 20:53:25 10° S visible
25 Apr 5.3 22:31:36 10° W 22:32:41 10° WSW 22:33:47 10° WSW visible
26 Apr 4.6 21:11:29 10° WNW 21:17:21 25° WSW 21:23:58 10° SSW visible
27 Apr 3.8 19:54:39 10° NW 20:01:31 51° WSW 20:09:43 10° SSE visible
27 Apr 5.2 21:45:34 10° W 21:48:58 13° WSW 21:52:34 10° SW visible
